CAPE
0 0 0 0 0 0 1 3 6 12 12 14 14 14 19 24 32 42 26 1 0 4 0 3 8 22 34 49 55 66 45 86 176 144 164 149 37 10 0 0 1 10 0 0 0 0 0 0 0 3 21 0 0 0
0 0 0 0 0 0 2 5 13 13 13 13 13 15 19 23 23 31 28 3 2 2 0 0 8 5 11 33 51 21 54 23 36 83 120 11 20 13 11 3 1 0 0 4 0 0 13 3 0 0 0 0 0 0
0 0 0 0 0 1 4 11 9 15 11 12 12 15 19 22 21 25 36 4 3 4 2 3 16 15 7 15 34 36 20 24 22 22 14 14 13 15 5 5 5 2 15 11 2 0 0 0 0 0 0 0 0 0
0 0 0 0 0 6 5 4 12 12 9 10 10 16 20 14 3 18 6 4 11 3 6 9 10 12 14 19 14 15 14 10 25 27 36 39 27 8 11 8 2 0 0 2 9 0 0 0 0 0 0 0 0 0
0 0 0 0 5 9 10 11 11 7 7 7 13 14 11 1 0 26 14 6 2 12 14 1 4 0 0 5 15 27 36 47 67 24 21 25 20 12 2 0 0 9 2 21 32 2 1 0 0 0 0 0 0 0
0 0 0 3 7 7 7 2 4 4 4 5 6 1 0 0 0 20 9 7 11 3 20 8 2 0 0 0 0 6 17 30 28 12 10 18 26 31 59 27 3 21 7 12 17 3 0 0 0 0 0 0 0 0
0 0 3 7 3 5 2 2 3 4 5 4 0 0 0 0 9 3 3 3 4 27 18 5 10 0 0 1 1 10 12 6 3 8 10 8 7 23 18 17 5 3 0 1 1 2 6 0 0 0 0 0 0 0
0 1 5 1 2 4 1 2 4 7 7 0 0 0 0 0 0 4 0 1 3 9 1 2 0 5 0 4 6 3 6 6 7 12 14 11 9 7 10 4 20 14 11 17 29 26 0 0 0 0 0 0 0 0
0 6 4 0 1 2 0 1 4 8 2 0 0 0 1 0 2 1 0 0 7 0 1 1 4 4 0 2 5 7 2 7 7 9 7 7 0 0 6 33 36 24 8 19 68 56 36 6 0 3 3 0 0 0
2 3 2 2 2 1 2 4 1 0 0 0 0 4 4 0 0 0 4 3 5 4 2 6 0 0 0 5 6 14 5 11 4 36 6 68 13 52 67 66 60 42 10 58 48 15 6 0 1 2 0 2 4 1
4 1 3 0 2 2 2 4 0 0 0 0 13 16 0 0 2 2 26 11 21 17 8 2 2 4 1 7 2 5 82 40 210 36 55 38 6 58 73 75 55 58 28 17 24 43 8 52 8 5 6 30 50 65
2 0 0 2 1 0 0 0 0 0 0 0 0 0 0 0 8 13 6 7 14 96 41 128 250 6 15 3 9 98 106 106 19 16 21 1 53 54 79 88 84 52 40 51 52 21 26 21 19 12 13 27 25 20
0 0 1 0 0 0 0 0 0 0 0 7 57 32 28 18 4 12 25 43 56 38 27 50 65 25 347 106 341 161 53 70 47 28 47 57 124 110 68 38 29 36 37 43 40 54 35 31 6 5 14 15 6 17
0 0 0 0 0 0 0 0 0 0 0 88 5 1 15 19 31 32 32 34 27 11 29 185 97 194 174 42 15 7 79 1 18 38 51 73 77 105 77 19 0 0 1 14 52 64 47 27 29 41 44 36 53 68
0 0 0 0 0 0 0 0 0 0 211 4 17 32 31 46 52 29 19 11 2 14 31 100 243 197 28 14 8 18 24 21 20 48 42 128 117 78 78 61 25 0 0 0 11 37 40 32 14 21 19 26 10 14
0 0 0 0 0 0 0 0 0 272 53 33 19 32 46 24 12 2 0 0 0 2 19 47 38 25 22 12 13 19 29 22 63 77 116 61 153 159 105 64 89 24 1 0 0 31 68 29 32 14 8 10 15 11
0 33 0 0 0 0 0 94 67 10 36 50 42 27 52 9 2 1 0 0 0 1 1 13 12 19 17 11 25 24 26 24 23 71 67 84 97 123 126 104 58 48 25 5 0 35 35 78 57 50 50 34 0 2
0 0 0 0 0 44 324 174 51 44 35 23 45 65 72 11 2 0 0 0 0 0 6 4 4 3 8 9 15 14 9 5 2 32 65 85 67 54 102 88 155 45 35 27 1 40 26 41 33 41 41 20 20 19
0 0 0 0 0 28 191 130 330 95 62 47 46 72 110 68 12 1 0 0 0 0 0 1 0 6 12 8 5 4 3 0 0 2 33 84 114 40 43 38 39 35 20 33 6 15 11 45 16 10 19 17 0 0
0 0 0 0 0 655 210 212 383 347 207 80 186 23 12 27 51 3 1 0 1 1 1 5 7 6 6 6 6 3 6 0 1 1 2 0 1 20 63 15 5 27 7 15 7 0 11 8 10 2 0 0 2 0
0 33 0 41 994 627 137 110 452 142 188 297 190 214 216 181 130 4 3 6 3 1 8 11 8 11 6 6 10 7 6 0 2 5 1 0 0 3 9 3 3 4 6 6 11 8 2 0 0 4 3 7 0 0
156 0 252 421 629 386 408 63 197 269 402 407 189 157 131 85 79 7 4 9 8 0 0 4 1 1 2 5 0 4 3 0 4 1 0 0 0 0 4 2 4 6 4 5 7 11 2 0 0 5 2 1 2 0
0 7 692 655 488 174 97 270 495 289 126 191 172 82 66 91 74 21 35 10 10 2 0 6 0 2 8 10 26 33 4 0 0 0 0 1 0 2 2 4 5 8 6 7 9 8 8 0 4 6 3 4 3 2
0 632 714 627 270 14 232 415 263 206 190 238 103 111 144 156 124 134 46 19 1 2 44 23 11 8 38 227 54 11 0 0 0 0 1 0 0 0 3 6 8 9 1 5 12 13 12 11 0 8 1 0 3 9
349 29 137 0 111 219 126 34 37 39 36 72 96 120 127 84 105 77 87 18 20 6 18 47 15 14 13 8 1 3 0 0 0 0 2 0 0 0 2 4 13 3 1 2 11 14 14 14 10 10 6 8 9 4
28 136 23 119 126 102 48 28 42 54 46 25 42 156 236 220 103 61 31 37 42 21 11 8 3 0 22 6 2 0 0 0 0 0 1 0 2 3 5 5 7 3 0 3 14 11 12 14 13 16 17 7 2 17
0 80 182 11 12 148 277 214 277 340 136 26 57 83 180 17 61 148 60 43 54 47 24 28 4 0 2 1 0 0 0 1 0 0 0 0 3 5 3 7 5 0 0 4 2 6 16 15 16 16 21 25 23 23
256 67 28 228 376 128 270 296 153 167 50 170 102 223 198 285 289 417 154 105 48 54 67 3 0 0 6 0 0 0 1 0 7 11 19 9 10 7 4 12 5 0 0 1 0 8 1 1 11 16 20 33 25 19
392 419 469 90 191 368 378 73 396 323 191 133 159 94 146 262 17 342 183 151 96 113 70 35 25 14 31 30 26 19 5 5 2 8 21 25 20 12 11 12 15 16 6 1 0 0 0 0 0 0 16 26 36 32
485 515 476 112 164 338 445 363 457 228 108 92 112 133 406 533 456 207 186 119 101 77 12 16 25 23 31 14 0 0 1 5 4 3 6 13 15 19 18 14 16 16 21 15 13 17 0 1 8 24 12 25 24 21
292 159 188 263 183 300 351 360 133 48 179 194 172 160 176 511 168 175 105 140 34 2 1 5 16 17 4 0 0 0 0 2 9 5 0 6 13 9 10 9 24 24 24 27 28 29 22 19 28 24 27 21 21 25
262 386 440 180 71 74 201 321 208 52 82 139 146 100 264 428 689 301 5 4 14 15 0 3 0 0 0 0 0 0 0 5 0 0 0 0 0 0 0 8 22 24 28 38 39 26 33 39 34 32 33 35 22 25
305 188 162 67 158 128 70 122 54 99 196 277 136 127 247 225 213 9 0 0 0 0 0 0 0 0 0 0 0 1 0 0 0 0 0 0 0 0 0 0 1 16 21 37 35 29 19 22 23 26 28 31 33 36
CIN
-0 -0 -0 -0 -0 -0 -0 -0 -0 -0 -0 -0 -0 -0 -0 -0 -0 -0 -0 -0 -0 -0 -0 -0 -0 -0 -0 -0 -3 -0 -0 -5 -0 -0 -0 -0 -0 -7 -0 -0 -0 -0 -0 -0 -0 -0 -0 -0 -0 -25 -49 -0 -0 -0
-0 -0 -0 -0 -0 -0 -0 -0 -0 -0 -0 -0 -0 -0 -0 -0 -0 -0 -0 -0 -0 -0 -0 -0 -0 -0 -2 -0 -0 -2 -0 -0 -0 -0 -2 -1 -0 -5 -2 -0 -1 -0 -0 -2 -2 -0 -8 -8 -0 -0 -0 -0 -0 -0
-0 -0 -0 -0 -0 -0 -0 -0 -0 -0 -0 -0 -0 -0 -0 -0 -0 -0 -0 -0 -0 -0 -0 -0 -3 -0 -5 -2 -0 -0 -0 -0 -0 -0 -0 -0 -3 -0 -0 -1 -0 -1 -13 -2 -0 -0 -0 -0 -0 -0 -0 -0 -0 -0
-0 -0 -0 -0 -0 -0 -0 -0 -0 -0 -0 -0 -0 -0 -0 -0 -0 -0 -0 -0 -0 -0 -0 -0 -0 -0 -0 -2 -0 -0 -0 -0 -0 -0 -0 -0 -0 -0 -16 -0 -0 -0 -0 -0 -1 -0 -1 -0 -0 -0 -0 -0 -0 -0
-0 -0 -0 -0 -0 -0 -0 -0 -0 -0 -0 -0 -0 -0 -0 -1 -0 -0 -0 -0 -2 -0 -0 -0 -0 -0 -0 -8 -5 -1 -2 -0 -0 -0 -0 -0 -0 -0 -0 -0 -0 -0 -0 -0 -0 -5 -5 -0 -0 -0 -0 -0 -0 -0
-0 -0 -0 -0 -0 -0 -0 -0 -0 -0 -0 -0 -0 -0 -0 -0 -0 -0 -0 -0 -0 -6 -0 -0 -1 -0 -0 -0 -0 -0 -1 -0 -0 -0 -0 -0 -0 -0 -0 -0 -0 -0 -0 -0 -0 -0 -0 -0 -0 -0 -0 -0 -0 -0
-0 -0 -0 -0 -0 -0 -0 -0 -0 -0 -0 -0 -0 -0 -0 -0 -3 -0 -0 -0 -6 -0 -0 -0 -0 -0 -0 -0 -0 -0 -0 -0 -0 -0 -0 -0 -0 -0 -0 -0 -0 -0 -0 -0 -0 -0 -0 -0 -0 -0 -0 -0 -0 -0
-0 -0 -0 -0 -0 -0 -0 -0 -0 -0 -0 -0 -0 -0 -0 -0 -0 -0 -0 -0 -0 -0 -0 -0 -0 -0 -0 -0 -0 -0 -0 -0 -0 -0 -0 -0 -0 -0 -0 -0 -0 -0 -0 -0 -0 -0 -0 -0 -0 -0 -0 -0 -0 -0
-0 -0 -0 -0 -0 -0 -0 -0 -0 -0 -0 -0 -0 -0 -2 -1 -0 -0 -0 -0 -0 -0 -0 -0 -0 -0 -0 -0 -0 -0 -0 -0 -0 -0 -0 -0 -0 -0 -0 -0 -0 -0 -1 -0 -5 -4 -0 -9 -0 -0 -0 -0 -0 -0
-0 -0 -0 -0 -0 -0 -0 -0 -0 -0 -0 -0 -0 -0 -0 -0 -0 -0 -0 -0 -0 -0 -0 -0 -0 -0 -0 -0 -0 -0 -0 -0 -0 -0 -2 -0 -0 -0 -1 -1 -0 -0 -0 -3 -0 -1 -0 -1 -0 -0 -0 -0 -0 -0
-0 -0 -0 -0 -0 -0 -0 -0 -0 -0 -0 -0 -40 -0 -0 -0 -0 -0 -5 -0 -0 -15 -0 -0 -18 -0 -0 -0 -0 -0 -0 -0 -0 -5 -0 -0 -0 -0 -2 -3 -3 -1 -1 -0 -0 -1 -6 -1 -2 -0 -1 -0 -4 -9
-0 -0 -0 -0 -0 -0 -0 -0 -0 -0 -0 -0 -0 -0 -0 -0 -3 -2 -0 -0 -0 -2 -1 -2 -5 -15 -10 -0 -0 -2 -3 -1 -0 -6 -4 -3 -0 -2 -1 -0 -1 -5 -1 -1 -0 -0 -3 -35 -2 -5 -2 -0 -0 -0
-0 -0 -0 -0 -0 -0 -0 -0 -0 -0 -0 -117 -71 -8 -64 -0 -13 -0 -0 -0 -1 -0 -1 -1 -59 -70 -0 -1 -0 -0 -0 -0 -1 -0 -0 -0 -0 -0 -0 -1 -1 -3 -2 -9 -1 -0 -0 -0 -2 -3 -0 -0 -0 -0
-0 -0 -0 -0 -0 -0 -0 -0 -0 -0 -0 -25 -0 -0 -0 -0 -0 -0 -0 -0 -1 -0 -0 -0 -106 -17 -4 -2 -0 -3 -0 -1 -0 -0 -0 -0 -0 -0 -0 -0 -0 -0 -9 -2 -1 -2 -0 -0 -0 -0 -0 -0 -0 -0
-0 -0 -0 -0 -0 -0 -0 -0 -0 -0 -49 -0 -9 -45 -0 -0 -0 -0 -0 -0 -0 -0 -0 -1 -0 -0 -0 -2 -0 -0 -0 -0 -1 -0 -0 -0 -1 -7 -0 -0 -0 -0 -0 -0 -2 -1 -3 -5 -6 -1 -0 -0 -6 -2
-0 -0 -0 -0 -0 -0 -0 -0 -0 -59 -80 -76 -0 -28 -15 -0 -0 -0 -0 -0 -0 -0 -0 -1 -0 -1 -0 -1 -0 -0 -0 -1 -0 -2 -2 -2 -0 -1 -2 -3 -0 -1 -0 -0 -0 -2 -0 -2 -4 -12 -16 -19 -12 -6
-0 -80 -0 -0 -0 -0 -0 -220 -96 -131 -99 -71 -48 -54 -30 -0 -0 -0 -0 -0 -0 -0 -0 -0 -0 -0 -0 -0 -0 -0 -0 -0 -1 -2 -0 -1 -0 -4 -3 -2 -1 -0 -1 -1 -0 -4 -5 -1 -0 -0 -1 -3 -0 -4
-0 -0 -0 -0 -0 -23 -20 -60 -109 -87 -90 -79 -56 -49 -45 -9 -0 -0 -0 -0 -0 -0 -0 -0 -0 -0 -0 -0 -0 -0 -0 -0 -0 -0 -0 -0 -3 -0 -3 -1 -0 -0 -0 -0 -3 -3 -1 -1 -1 -0 -1 -3 -2 -2
-0 -0 -0 -0 -0 -201 -37 -67 -16 -51 -54 -61 -50 -43 -28 -39 -11 -0 -0 -0 -0 -0 -0 -0 -0 -0 -0 -0 -0 -0 -0 -0 -0 -0 -1 -6 -1 -0 -0 -0 -0 -0 -0 -1 -5 -0 -0 -0 -0 -0 -0 -0 -0 -0
-0 -0 -0 -0 -0 -10 -21 -16 -10 -3 -5 -19 -7 -43 -34 -51 -49 -0 -0 -0 -0 -0 -0 -0 -0 -0 -0 -0 -0 -0 -0 -0 -0 -0 -0 -0 -0 -1 -0 -0 -1 -0 -1 -1 -3 -0 -0 -0 -0 -1 -0 -0 -0 -0
-0 -62 -0 -14 -4 -1 -24 -28 -0 -16 -1 -2 -5 -2 -1 -0 -7 -0 -0 -0 -0 -0 -0 -0 -0 -0 -3 -0 -0 -0 -0 -0 -0 -0 -0 -0 -0 -0 -0 -0 -0 -0 -0 -0 -0 -2 -2 -0 -0 -1 -0 -0 -1 -0
-100 -0 -59 -51 -0 -0 -0 -35 -1 -1 -1 -0 -0 -0 -0 -0 -0 -2 -0 -0 -0 -0 -0 -0 -0 -0 -0 -1 -0 -0 -0 -0 -1 -0 -0 -0 -0 -0 -0 -0 -0 -0 -1 -0 -0 -0 -0 -0 -0 -0 -0 -1 -1 -0
-0 -76 -16 -0 -0 -28 -3 -2 -0 -1 -0 -0 -0 -0 -0 -0 -1 -1 -2 -0 -1 -0 -0 -0 -0 -3 -7 -3 -0 -0 -0 -0 -0 -0 -0 -0 -0 -0 -0 -1 -0 -0 -0 -0 -0 -0 -0 -0 -1 -1 -0 -0 -0 -0
-0 -12 -0 -0 -4 -46 -2 -0 -0 -0 -0 -0 -0 -0 -0 -0 -2 -0 -0 -0 -0 -1 -0 -6 -0 -0 -1 -5 -1 -1 -0 -0 -0 -0 -0 -0 -0 -0 -0 -0 -0 -0 -0 -0 -0 -0 -0 -0 -0 -0 -0 -0 -0 -0
-22 -42 -44 -0 -14 -0 -1 -16 -16 -13 -1 -5 -3 -1 -1 -3 -6 -0 -1 -1 -0 -3 -2 -0 -1 -0 -0 -0 -0 -0 -0 -0 -0 -0 -0 -0 -0 -0 -0 -0 -0 -0 -0 -0 -0 -0 -0 -0 -0 -0 -0 -0 -0 -6
-27 -27 -15 -3 -4 -1 -10 -19 -14 -7 -2 -0 -10 -0 -0 -0 -0 -4 -4 -19 -5 -21 -44 -31 -0 -0 -4 -0 -0 -0 -0 -0 -0 -0 -0 -0 -0 -0 -0 -0 -0 -0 -0 -0 -0 -0 -0 -0 -0 -0 -0 -0 -2 -1
-0 -13 -2 -14 -9 -1 -0 -1 -2 -0 -0 -0 -0 -1 -36 -88 -2 -0 -1 -9 -1 -32 -26 -3 -13 -12 -0 -0 -0 -0 -0 -0 -0 -0 -0 -0 -0 -0 -0 -0 -0 -0 -0 -0 -0 -0 -0 -0 -0 -0 -0 -0 -0 -0
-0 -5 -3 -24 -1 -0 -1 -3 -6 -51 -95 -37 -0 -3 -17 -0 -26 -35 -0 -1 -14 -20 -7 -12 -0 -0 -0 -0 -0 -0 -0 -0 -2 -1 -0 -1 -0 -0 -0 -0 -0 -0 -0 -0 -0 -0 -0 -0 -0 -0 -0 -0 -0 -0
-0 -0 -2 -2 -0 -0 -1 -99 -8 -0 -5 -27 -0 -1 -1 -53 -104 -3 -1 -0 -2 -0 -0 -0 -1 -2 -0 -0 -0 -0 -1 -0 -0 -0 -0 -0 -0 -0 -0 -0 -0 -0 -1 -0 -0 -0 -0 -0 -0 -0 -0 -0 -0 -0
-8 -5 -0 -2 -1 -1 -0 -22 -25 -0 -1 -0 -1 -0 -4 -20 -2 -0 -0 -9 -0 -3 -2 -1 -0 -0 -1 -0 -0 -0 -0 -0 -0 -0 -0 -0 -0 -0 -0 -0 -0 -0 -0 -0 -0 -1 -0 -2 -0 -0 -3 -0 -0 -0
-1 -1 -0 -0 -0 -15 -3 -8 -0 -1 -11 -7 -1 -21 -1 -5 -72 -35 -7 -5 -1 -1 -0 -0 -1 -0 -0 -0 -0 -0 -0 -0 -1 -1 -0 -0 -0 -0 -0 -1 -0 -0 -0 -0 -0 -0 -0 -0 -0 -0 -0 -0 -0 -0
-0 -6 -0 -0 -0 -1 -0 -0 -0 -0 -1 -1 -1 -2 -1 -9 -0 -8 -68 -30 -0 -0 -0 -1 -0 -0 -0 -0 -0 -0 -0 -0 -0 -0 -0 -0 -0 -0 -0 -0 -1 -0 -0 -0 -0 -0 -0 -0 -0 -0 -0 -0 -0 -0
-0 -1 -1 -1 -0 -0 -1 -0 -2 -1 -0 -9 -45 -33 -0 -0 -9 -57 -0 -0 -0 -0 -0 -0 -0 -0 -0 -0 -0 -0 -0 -0 -0 -0 -0 -0 -0 -0 -0 -0 -0 -0 -0 -0 -0 -0 -0 -0 -0 -0 -0 -0 -0 -0
Wind_Speed
18 18 20 21 21 22 22 23 23 22 22 21 20 20 18 17 15 6 2 8 5 4 8 12 13 12 12 9 6 12 8 7 8 4 5 7 5 6 6 4 5 7 12 11 12 14 12 18 12 10 8 13 16 18
19 19 20 21 22 23 23 23 23 21 20 20 20 19 17 15 13 8 3 6 7 2 6 12 16 18 21 16 10 4 12 12 5 6 6 6 13 9 11 8 6 7 6 8 7 11 14 15 13 13 13 9 12 12
20 20 21 21 22 23 22 23 22 19 19 19 19 18 16 14 12 7 0 2 3 2 6 9 6 6 10 10 11 8 5 5 5 9 7 6 7 10 11 9 16 19 19 12 13 16 19 14 14 11 14 13 12 12
21 21 22 22 22 22 23 22 20 18 17 18 19 18 15 12 7 4 3 4 1 2 3 4 9 4 8 9 6 5 7 11 10 7 5 4 5 11 10 16 15 13 20 18 20 18 18 18 17 18 16 17 16 14
21 22 22 22 22 21 21 19 18 17 17 18 18 16 12 7 3 5 5 5 2 0 3 7 8 6 8 7 5 6 5 4 1 1 1 2 4 4 7 8 11 13 17 14 16 25 21 23 23 24 19 18 16 15
21 22 21 21 21 21 20 20 17 16 16 17 16 13 6 2 3 2 2 4 5 2 2 4 4 5 4 5 5 4 1 2 2 1 1 3 3 1 4 5 14 16 20 24 25 27 29 26 27 28 23 22 20 16
22 21 21 21 21 20 20 19 16 15 15 13 9 3 4 3 4 3 3 3 5 3 2 4 3 4 4 4 2 2 4 4 1 1 2 1 2 2 2 5 14 25 26 27 27 27 28 32 23 24 21 21 21 21
21 20 21 22 20 19 20 18 16 14 10 6 1 2 3 12 11 3 6 3 2 2 1 2 4 1 2 1 2 1 2 1 1 2 1 1 2 1 5 15 19 25 22 13 17 19 28 27 22 23 22 19 20 18
20 20 20 22 20 19 18 17 16 12 5 3 6 2 4 4 1 4 6 3 3 1 2 0 1 3 3 2 3 3 2 1 1 2 2 2 1 4 16 21 25 32 23 16 12 12 15 24 22 18 17 19 21 19
20 19 19 21 20 19 17 15 13 8 3 7 5 4 3 4 13 9 3 2 4 3 2 3 2 3 2 2 2 3 4 2 2 0 3 2 3 15 20 20 20 30 26 23 20 14 9 3 9 13 15 14 16 17
20 20 20 21 21 18 15 11 7 2 8 5 6 2 6 6 2 3 2 2 2 2 4 6 5 4 3 2 2 2 2 3 1 3 2 5 6 16 20 19 21 24 32 26 19 17 19 9 5 7 11 13 8 10
20 20 20 20 20 20 13 7 2 4 3 3 2 3 5 4 4 2 4 2 2 4 4 6 1 4 2 4 3 4 4 1 5 4 5 5 8 14 16 20 21 20 21 29 27 26 24 23 19 15 15 11 12 10
21 21 20 20 19 18 14 6 8 11 11 6 6 3 1 1 6 5 6 4 5 5 10 11 3 3 4 6 5 3 6 4 2 5 4 5 12 13 14 15 18 20 21 16 24 27 27 27 28 25 21 19 19 16
20 19 19 19 17 14 13 7 3 4 5 3 1 5 1 2 3 2 6 8 10 11 13 6 4 3 4 3 4 4 3 6 5 4 3 6 12 14 12 13 15 20 21 22 17 16 18 19 18 16 15 14 13 14
20 20 19 14 12 11 9 6 8 5 5 3 2 1 4 6 7 10 10 9 11 11 10 7 4 3 5 4 4 5 4 4 2 2 3 7 8 9 14 13 13 14 16 17 17 14 14 11 13 15 15 14 15 14
21 22 3 10 13 18 12 4 5 5 4 3 3 5 7 9 10 10 10 10 11 11 11 3 5 4 6 4 5 7 5 3 4 3 3 7 10 9 10 11 12 10 12 13 14 13 9 10 9 9 10 9 8 12
18 2 8 14 19 22 13 4 1 1 0 4 2 7 7 8 9 10 10 10 11 8 8 5 7 5 4 5 4 4 4 6 6 2 4 4 9 8 8 7 11 11 10 10 12 9 10 7 9 9 10 8 11 12
6 9 16 18 15 8 3 3 1 3 1 4 5 6 6 6 7 9 9 9 7 8 5 4 3 8 4 3 3 5 8 8 9 7 5 5 2 4 5 7 8 9 8 7 11 9 9 10 9 8 9 12 10 10
14 15 20 18 8 5 3 2 4 1 1 3 5 4 7 7 5 6 7 8 8 7 7 6 5 7 7 7 7 7 8 8 9 10 3 5 5 5 6 9 10 10 8 8 8 8 6 9 9 10 8 7 8 9
23 20 18 11 2 5 2 2 3 4 1 4 5 6 4 4 5 5 6 7 6 5 5 5 5 6 7 7 5 7 7 8 9 9 9 9 9 10 8 9 8 9 8 9 8 10 10 9 7 7 7 8 9 10
7 2 5 5 6 6 4 4 0 3 4 1 1 1 4 4 3 6 4 3 6 5 5 6 7 8 4 3 5 5 6 8 9 8 7 8 9 11 7 8 8 7 7 8 8 8 10 8 10 8 9 8 9 9
3 6 4 4 4 2 4 1 4 2 3 4 2 2 3 3 5 6 5 4 3 4 4 5 6 5 3 4 3 4 2 6 10 8 2 6 8 8 7 7 6 6 7 7 7 7 9 7 8 8 8 8 8 9
7 4 5 4 2 2 5 3 4 0 3 5 4 3 3 2 3 2 3 1 3 3 1 4 3 6 6 6 7 5 3 5 8 8 8 6 8 8 7 7 7 6 7 7 5 6 6 6 6 8 9 9 7 7
2 5 5 3 3 4 3 4 3 2 2 4 3 4 4 3 4 4 3 2 4 1 5 1 5 6 3 9 7 5 5 5 7 7 6 7 8 8 7 6 6 7 7 8 7 6 6 7 7 8 10 8 9 7
2 5 3 5 4 6 5 4 3 3 5 5 2 3 2 0 3 4 4 1 4 5 6 6 7 6 7 6 6 5 8 8 8 8 8 7 7 8 8 7 7 8 7 8 8 8 7 7 7 7 9 8 11 12
1 5 3 4 4 4 4 5 4 5 4 3 4 2 2 3 4 4 2 3 4 6 6 3 5 8 9 6 6 6 7 7 7 8 8 7 6 7 8 8 8 9 9 9 9 9 9 8 8 10 11 11 7 11
4 6 6 3 5 6 4 5 6 8 11 12 6 4 5 3 5 6 3 2 6 6 2 1 6 1 6 6 6 5 2 2 3 3 2 1 3 6 6 7 8 8 6 8 9 10 10 10 9 9 9 8 9 8
5 4 5 7 11 5 8 9 14 2 5 7 6 5 1 4 2 6 5 6 8 2 3 4 4 3 4 2 4 4 4 5 4 2 6 3 2 5 5 6 6 4 5 7 8 9 10 10 9 10 9 7 6 6
6 2 10 8 8 12 2 4 7 4 6 6 6 5 2 9 11 10 7 6 6 5 5 4 2 1 5 3 7 4 3 3 5 6 6 5 5 6 7 7 7 8 9 6 9 8 7 8 8 8 8 6 5 5
8 9 9 9 7 9 3 4 8 9 6 6 4 4 8 5 4 9 6 5 3 5 6 6 3 4 4 6 9 10 7 7 7 7 7 7 6 6 7 6 6 6 6 7 5 4 3 5 2 3 5 6 6 6
2 4 3 7 7 3 9 9 6 5 4 2 3 5 2 11 5 2 5 4 6 6 5 6 4 5 7 9 7 7 9 7 9 8 6 5 8 8 9 8 5 5 5 6 6 6 7 7 7 6 6 7 7 6
2 4 10 9 9 4 3 7 6 8 3 5 2 2 9 7 5 4 6 7 6 6 5 2 9 11 10 8 8 7 4 8 8 10 13 10 10 9 8 7 5 6 6 6 5 4 6 7 7 7 5 6 7 6
6 4 3 4 5 5 4 1 5 6 5 7 11 9 13 8 6 4 4 5 6 7 8 9 8 8 6 6 6 4 10 11 14 12 11 11 12 12 8 10 10 8 9 7 6 5 5 6 6 6 6 6 6 7
Wind_Direction
298 299 300 301 303 304 303 304 304 305 311 314 311 306 305 304 299 288 246 180 177 215 271 267 284 277 275 282 290 326 316 354 337 357 315 349 7 306 292 24 0 204 190 224 246 244 236 51 358 37 41 47 29 23
300 300 300 303 305 305 305 306 307 311 314 313 308 304 305 302 299 297 246 185 201 190 283 310 288 275 262 270 282 317 302 324 332 5 356 329 310 302 350 305 205 212 216 288 263 254 310 353 357 4 3 25 23 14
302 301 302 305 306 305 308 310 313 313 316 314 309 308 309 305 302 271 138 107 92 342 283 256 266 316 205 250 250 269 296 348 349 348 315 319 306 335 322 320 352 330 322 325 282 272 289 310 317 329 333 335 341 334
302 304 305 307 307 309 314 314 314 318 319 317 311 315 316 312 289 204 148 158 160 96 294 8 50 6 19 0 299 262 279 309 328 354 343 315 323 353 325 321 312 314 316 309 303 289 296 289 291 299 306 306 305 309
303 304 306 308 311 314 313 315 320 322 323 318 320 324 323 302 229 188 165 167 157 320 325 316 337 65 65 64 13 352 357 324 327 73 256 307 314 319 315 300 283 305 310 301 294 306 307 297 306 314 307 275 274 276
305 305 309 313 315 317 316 322 324 325 324 323 329 331 324 243 226 236 162 143 166 187 304 312 47 93 90 62 36 31 360 358 61 51 240 248 240 253 288 280 283 301 294 284 280 284 285 284 285 284 290 295 294 283
307 310 315 315 319 318 319 324 324 323 321 323 343 37 101 148 232 358 30 72 129 179 260 308 22 62 61 98 54 44 43 44 47 255 224 240 232 204 264 260 303 297 277 265 258 258 267 267 257 263 262 271 288 285
309 315 317 320 322 319 321 324 321 318 321 323 156 163 106 100 121 136 88 97 295 265 44 7 320 259 77 34 107 81 68 22 233 308 320 261 328 253 256 304 323 328 324 304 255 244 229 249 254 248 248 255 268 279
315 319 319 320 321 320 322 325 318 319 315 205 171 238 249 223 336 76 119 220 295 230 133 96 301 305 114 93 114 161 164 206 76 287 253 166 334 28 321 328 344 343 332 329 320 319 299 228 235 241 239 245 243 254
317 320 320 318 318 318 318 319 316 333 86 150 206 216 191 62 120 142 166 208 213 167 216 234 129 273 326 82 247 186 191 200 240 122 171 31 44 1 349 359 354 355 9 22 20 13 5 66 193 217 229 247 252 250
319 322 319 319 313 312 313 311 313 42 140 215 208 78 72 140 225 228 254 39 350 281 186 219 221 301 119 292 297 227 318 205 31 83 24 4 1 1 350 6 12 11 10 20 24 33 36 30 172 203 227 246 300 311
320 322 320 315 312 308 315 315 186 221 343 348 35 137 147 207 224 336 13 357 325 288 309 293 99 203 174 171 228 201 250 155 61 72 24 359 4 355 356 5 12 15 24 19 14 29 36 45 46 51 60 40 40 16
319 319 314 313 309 304 315 315 241 272 288 231 223 196 52 97 28 23 345 305 293 288 296 291 72 191 223 210 239 328 11 71 34 57 0 6 350 4 3 7 10 10 19 35 32 26 23 26 35 34 38 37 40 33
308 311 313 310 299 292 305 313 245 210 254 263 23 354 57 253 306 289 307 329 343 335 309 2 111 250 263 67 360 33 46 34 48 16 352 322 359 355 12 13 11 10 11 12 37 52 42 34 39 37 38 22 28 32
311 315 311 295 283 299 306 282 188 218 272 7 112 234 345 320 352 12 5 341 352 318 324 316 56 320 33 58 24 23 41 54 66 310 276 325 9 358 0 9 16 19 9 4 2 27 59 66 59 51 32 29 36 36
323 306 289 300 326 324 315 238 177 237 337 0 358 8 357 5 5 4 357 355 349 326 319 84 52 23 31 47 19 15 35 355 319 242 313 354 12 1 8 351 0 22 15 4 358 6 26 51 61 95 90 76 59 59
316 300 3 358 337 311 285 255 88 10 216 203 346 23 10 26 1 1 357 0 336 354 2 5 27 55 15 52 28 16 335 312 345 21 35 9 20 8 352 348 333 13 8 11 352 358 359 53 56 51 48 62 49 38
241 8 5 344 340 289 210 313 59 291 54 26 5 9 16 43 8 4 8 8 352 355 15 29 105 48 65 6 5 10 2 1 339 351 57 4 22 355 313 341 334 18 15 24 352 353 25 14 40 48 57 36 33 51
299 305 307 308 328 299 322 55 312 175 309 37 353 0 11 15 31 14 21 18 14 23 21 4 48 28 39 38 9 2 2 360 333 327 349 214 263 349 331 2 12 352 36 44 27 359 46 39 39 26 34 58 50 24
288 272 269 272 251 270 231 103 258 260 18 30 12 38 349 318 289 32 23 23 12 37 33 40 46 44 20 29 24 357 12 346 327 341 343 353 354 326 19 5 13 341 26 14 79 27 15 32 45 69 35 35 35 46
284 60 271 204 209 245 331 302 65 47 318 214 235 93 318 314 297 43 346 18 43 14 22 25 27 64 63 20 17 351 24 353 325 322 344 338 336 302 10 355 2 7 17 21 15 66 46 28 350 31 18 29 70 35
23 322 282 172 271 150 269 80 316 1 240 300 296 283 270 24 350 34 295 4 70 24 24 15 27 347 337 35 341 312 8 333 309 316 278 331 340 336 1 347 356 12 3 35 17 38 68 38 354 25 26 11 60 70
281 206 226 237 283 70 258 275 273 136 307 320 313 329 330 349 63 264 249 78 87 102 34 50 328 242 250 271 267 232 165 327 325 337 341 1 332 338 350 356 353 27 6 358 22 31 58 77 36 22 31 9 19 34
161 276 301 301 186 237 226 245 205 255 286 268 319 317 316 37 336 300 303 24 95 253 124 9 316 335 244 201 276 52 26 352 335 347 345 18 341 345 333 359 353 54 21 335 354 24 32 39 44 35 61 24 353 13
268 290 158 270 249 246 245 282 273 279 275 281 255 232 221 190 252 254 270 94 65 64 56 17 350 346 339 10 15 68 48 12 2 328 38 6 357 347 358 351 17 46 23 339 351 12 22 17 32 16 65 53 31 40
352 198 168 257 199 247 302 273 258 262 286 269 239 250 308 284 252 236 98 74 49 79 76 334 359 45 328 2 9 16 25 34 11 353 29 354 13 9 1 351 352 30 4 333 351 10 8 13 27 19 44 58 49 41
255 204 202 208 286 276 273 277 273 298 4 355 295 29 73 171 263 18 79 92 98 99 156 244 77 50 305 4 19 29 19 106 112 324 175 334 15 63 7 356 39 9 326 332 9 359 1 12 22 25 33 45 34 41
265 310 260 225 253 278 289 3 348 183 208 246 314 69 15 262 169 227 73 101 103 100 66 79 69 335 308 10 6 340 6 343 163 291 14 105 71 68 42 17 39 184 348 22 4 1 12 353 2 20 26 27 36 43
255 345 309 296 294 287 102 143 260 216 181 236 318 8 284 78 43 327 46 72 76 41 12 357 169 302 282 247 214 218 26 62 13 339 345 359 17 41 41 21 9 11 18 85 68 32 23 8 14 357 356 11 22 28
243 249 247 280 273 282 272 177 243 290 10 337 348 337 87 92 75 21 51 55 38 35 18 355 5 290 323 21 27 18 354 44 47 31 358 357 14 26 33 21 0 358 12 6 33 65 284 249 174 304 359 13 16 5
273 294 272 285 306 150 265 244 305 329 180 324 344 54 103 105 41 291 36 28 32 27 345 336 11 52 29 29 34 23 6 22 57 66 25 340 24 24 10 4 2 354 12 16 21 11 8 12 15 19 15 13 16 354
0 283 270 290 312 298 317 7 333 332 316 230 137 161 112 110 103 111 26 347 338 350 117 25 43 50 32 11 46 80 230 56 41 30 16 13 3 6 344 346 23 31 9 15 353 21 11 11 7 5 1 8 5 3
269 295 258 283 302 302 205 283 341 302 314 40 22 342 37 42 66 91 91 23 5 360 37 52 59 86 74 63 28 55 92 84 92 87 78 62 39 9 6 19 2 14 24 21 28 27 359 2 6 0 359 360 356 4